Location: D�pe
(52.6057°N, 8.1808°E)
Time: 14:13:27
(UTC+00:00)

Cosmos 1076 Rocket - Pass Details

Date: 29 October 2020
Orbit: 589 x 613 km, 82.5° (Epoch: 28 November)

Event Time Altitude Azimuth Distance (km) Brightness Sun altitude
Rises 18:25:34 0° 345° (NNW) 2,837 7.2 -22.2°
Reaches altitude 10° 18:27:49 10° 340° (NNW) 1,932 6.4 -22.5°
Maximum altitude 18:31:55 49° 266° (W) 773 4.4 -23.2°
Drops below altitude 10° 18:36:01 10° 191° (SSW) 1,922 6.1 -23.8°
Sets 18:38:15 0° 186° (S) 2,821 6.9 -24.1°
